Time,TemperatureF,DewpointF,PressureIn,WindDirection,WindDirectionDegrees,WindSpeedMPH,WindSpeedGustMPH,Humidity,HourlyPrecipIn,Conditions,Clouds,dailyrainin,SoftwareType,DateUTC
2013-09-12 00:00:00,75.1,69.6,29.99,ESE,102,1.0,2.0,83,0.00,,,0.00,Wunderground v.1.15,2013-09-12 10:00:00,
2013-09-12 00:05:00,75.0,69.5,29.99,ESE,102,0.0,2.0,83,0.00,,,0.00,Wunderground v.1.15,2013-09-12 10:05:00,
2013-09-12 00:15:00,74.8,69.3,29.99,ESE,102,0.0,0.0,83,0.00,,,0.00,Wunderground v.1.15,2013-09-12 10:15:00,
2013-09-12 00:25:00,74.5,69.0,29.98,ESE,102,1.0,1.0,83,0.00,,,0.00,Wunderground v.1.15,2013-09-12 10:25:00,
2013-09-12 00:35:00,74.5,69.0,29.98,ESE,102,1.0,4.0,83,0.00,,,0.00,Wunderground v.1.15,2013-09-12 10:35:00,
2013-09-12 00:40:00,74.7,69.2,29.98,East,101,1.0,1.0,83,0.00,,,0.00,Wunderground v.1.15,2013-09-12 10:40:00,
2013-09-12 00:50:00,74.8,68.9,29.98,East,101,1.0,1.0,82,0.00,,,0.00,Wunderground v.1.15,2013-09-12 10:50:00,
2013-09-12 01:00:00,75.0,69.1,29.97,ESE,103,1.0,1.0,82,0.00,,,0.00,Wunderground v.1.15,2013-09-12 11:00:00,
2013-09-12 01:05:00,74.9,69.0,29.97,ESE,103,1.0,1.0,82,0.00,,,0.00,Wunderground v.1.15,2013-09-12 11:05:00,
2013-09-12 01:15:00,74.8,68.9,29.97,ESE,103,1.0,1.0,82,0.00,,,0.00,Wunderground v.1.15,2013-09-12 11:15:00,
2013-09-12 01:25:00,74.8,68.9,29.97,ESE,105,1.0,2.0,82,0.00,,,0.00,Wunderground v.1.15,2013-09-12 11:25:00,
2013-09-12 01:35:00,74.8,68.6,29.96,ESE,106,2.0,3.0,81,0.00,,,0.00,Wunderground v.1.15,2013-09-12 11:35:00,
2013-09-12 01:45:00,74.7,68.1,29.96,ESE,107,2.0,3.0,80,0.00,,,0.00,Wunderground v.1.15,2013-09-12 11:45:00,
2013-09-12 01:55:00,74.7,68.1,29.96,ESE,107,1.0,1.0,80,0.00,,,0.00,Wunderground v.1.15,2013-09-12 11:55:00,
2013-09-12 02:05:00,74.6,68.4,29.96,ESE,107,1.0,2.0,81,0.00,,,0.00,Wunderground v.1.15,2013-09-12 12:05:00,
2013-09-12 02:15:00,74.6,68.0,29.95,ESE,107,2.0,2.0,80,0.00,,,0.00,Wunderground v.1.15,2013-09-12 12:15:00,
2013-09-12 02:25:00,74.6,68.4,29.95,ESE,107,1.0,2.0,81,0.00,,,0.00,Wunderground v.1.15,2013-09-12 12:25:00,
2013-09-12 02:30:00,74.6,68.4,29.95,ESE,107,1.0,1.0,81,0.00,,,0.00,Wunderground v.1.15,2013-09-12 12:30:00,
2013-09-12 02:40:00,74.5,68.6,29.95,ESE,108,0.0,2.0,82,0.00,,,0.00,Wunderground v.1.15,2013-09-12 12:40:00,
2013-09-12 02:50:00,74.6,69.1,29.95,ESE,107,1.0,3.0,83,0.00,,,0.00,Wunderground v.1.15,2013-09-12 12:50:00,
2013-09-12 02:55:00,74.6,69.1,29.94,ESE,107,2.0,3.0,83,0.00,,,0.00,Wunderground v.1.15,2013-09-12 12:55:00,
2013-09-12 03:05:00,74.8,69.6,29.94,ESE,108,2.0,3.0,84,0.00,,,0.00,Wunderground v.1.15,2013-09-12 13:05:00,
2013-09-12 03:15:00,74.9,69.7,29.94,ESE,107,1.0,2.0,84,0.00,,,0.00,Wunderground v.1.15,2013-09-12 13:15:00,
2013-09-12 03:20:00,74.9,69.7,29.94,ESE,107,1.0,1.0,84,0.00,,,0.00,Wunderground v.1.15,2013-09-12 13:20:00,
2013-09-12 03:30:00,74.9,70.1,29.93,ESE,107,1.0,1.0,85,0.00,,,0.00,Wunderground v.1.15,2013-09-12 13:30:00,
2013-09-12 03:35:00,74.9,70.1,29.93,ESE,107,1.0,4.0,85,0.00,,,0.00,Wunderground v.1.15,2013-09-12 13:35:00,
2013-09-12 03:45:00,74.9,70.1,29.93,ESE,110,2.0,2.0,85,0.00,,,0.00,Wunderground v.1.15,2013-09-12 13:45:00,
2013-09-12 03:50:00,75.0,70.5,29.93,ESE,110,1.0,1.0,86,0.00,,,0.00,Wunderground v.1.15,2013-09-12 13:50:00,
2013-09-12 04:00:00,75.1,70.6,29.93,ESE,110,2.0,2.0,86,0.00,,,0.00,Wunderground v.1.15,2013-09-12 14:00:00,
2013-09-12 04:05:00,75.0,70.5,29.94,ESE,110,1.0,3.0,86,0.00,,,0.00,Wunderground v.1.15,2013-09-12 14:05:00,
2013-09-12 04:15:00,75.1,70.6,29.94,ESE,110,2.0,2.0,86,0.00,,,0.00,Wunderground v.1.15,2013-09-12 14:15:00,
2013-09-12 04:25:00,75.2,71.1,29.94,ESE,109,1.0,1.0,87,0.00,,,0.00,Wunderground v.1.15,2013-09-12 14:25:00,
2013-09-12 04:35:00,75.2,71.1,29.94,ESE,109,0.0,1.0,87,0.00,,,0.00,Wunderground v.1.15,2013-09-12 14:35:00,
2013-09-12 04:40:00,75.1,71.3,29.94,ESE,109,0.0,1.0,88,0.00,,,0.00,Wunderground v.1.15,2013-09-12 14:40:00,
2013-09-12 04:50:00,74.9,71.4,29.94,ESE,109,0.0,0.0,89,0.00,,,0.00,Wunderground v.1.15,2013-09-12 14:50:00,
2013-09-12 05:00:00,74.8,71.3,29.94,ESE,109,0.0,0.0,89,0.00,,,0.00,Wunderground v.1.15,2013-09-12 15:00:00,
2013-09-12 05:05:00,74.8,71.3,29.94,ESE,109,0.0,0.0,89,0.00,,,0.00,Wunderground v.1.15,2013-09-12 15:05:00,
2013-09-12 05:15:00,74.8,71.3,29.94,ESE,109,1.0,1.0,89,0.00,,,0.00,Wunderground v.1.15,2013-09-12 15:15:00,
2013-09-12 05:25:00,75.0,71.5,29.94,ESE,109,1.0,3.0,89,0.00,,,0.00,Wunderground v.1.15,2013-09-12 15:25:00,
2013-09-12 05:30:00,75.1,71.3,29.95,ESE,109,1.0,1.0,88,0.00,,,0.00,Wunderground v.1.15,2013-09-12 15:30:00,
2013-09-12 05:40:00,75.2,71.4,29.95,ESE,109,1.0,1.0,88,0.00,,,0.00,Wunderground v.1.15,2013-09-12 15:40:00,
2013-09-12 05:50:00,75.5,71.7,29.95,ESE,109,0.0,0.0,88,0.00,,,0.00,Wunderground v.1.15,2013-09-12 15:50:00,
2013-09-12 06:00:00,75.7,71.9,29.95,ESE,109,0.0,0.0,88,0.00,,,0.00,Wunderground v.1.15,2013-09-12 16:00:00,
2013-09-12 06:05:00,75.8,72.0,29.95,ESE,109,0.0,1.0,88,0.00,,,0.00,Wunderground v.1.15,2013-09-12 16:05:00,
2013-09-12 06:15:00,75.8,72.3,29.96,NE,55,1.0,1.0,89,0.11,,,0.08,Wunderground v.1.15,2013-09-12 16:15:00,
2013-09-12 06:20:00,75.7,72.6,29.95,NE,55,1.0,1.0,90,0.06,,,0.08,Wunderground v.1.15,2013-09-12 16:20:00,
2013-09-12 06:30:00,75.4,72.3,29.96,NE,55,0.0,0.0,90,0.00,,,0.08,Wunderground v.1.15,2013-09-12 16:30:00,
2013-09-12 06:40:00,75.2,72.4,29.96,NE,55,1.0,1.0,91,0.00,,,0.08,Wunderground v.1.15,2013-09-12 16:40:00,
2013-09-12 06:50:00,75.3,72.5,29.96,NE,55,1.0,1.0,91,0.00,,,0.08,Wunderground v.1.15,2013-09-12 16:50:00,
2013-09-12 07:00:00,75.5,72.7,29.97,NE,55,1.0,1.0,91,0.00,,,0.08,Wunderground v.1.15,2013-09-12 17:00:00,
2013-09-12 07:05:00,75.4,72.6,29.97,NE,55,1.0,2.0,91,0.00,,,0.08,Wunderground v.1.15,2013-09-12 17:05:00,
2013-09-12 07:15:00,75.6,72.8,29.97,NE,55,1.0,2.0,91,0.00,,,0.08,Wunderground v.1.15,2013-09-12 17:15:00,
2013-09-12 07:25:00,76.9,73.7,29.97,NE,55,1.0,2.0,90,0.00,,,0.08,Wunderground v.1.15,2013-09-12 17:25:00,
2013-09-12 07:35:00,77.9,74.1,29.97,NE,55,1.0,3.0,88,0.00,,,0.08,Wunderground v.1.15,2013-09-12 17:35:00,
2013-09-12 07:45:00,78.4,73.9,29.97,NE,55,1.0,2.0,86,0.00,,,0.08,Wunderground v.1.15,2013-09-12 17:45:00,
2013-09-12 07:55:00,78.6,73.7,29.97,NE,55,3.0,3.0,85,0.00,,,0.08,Wunderground v.1.15,2013-09-12 17:55:00,
2013-09-12 08:05:00,78.2,73.7,29.98,NE,48,3.0,3.0,86,0.00,,,0.08,Wunderground v.1.15,2013-09-12 18:05:00,
2013-09-12 08:15:00,78.0,73.5,29.98,NE,50,2.0,6.0,86,0.00,,,0.08,Wunderground v.1.15,2013-09-12 18:15:00,
2013-09-12 08:20:00,78.3,73.8,29.98,NE,46,3.0,4.0,86,0.00,,,0.08,Wunderground v.1.15,2013-09-12 18:20:00,
2013-09-12 08:30:00,78.3,73.4,29.98,NE,40,4.0,4.0,85,0.00,,,0.08,Wunderground v.1.15,2013-09-12 18:30:00,
2013-09-12 08:40:00,78.2,73.3,29.98,NE,40,4.0,4.0,85,0.00,,,0.08,Wunderground v.1.15,2013-09-12 18:40:00,
2013-09-12 08:50:00,78.4,73.5,29.98,NE,34,4.0,5.0,85,0.00,,,0.08,Wunderground v.1.15,2013-09-12 18:50:00,
2013-09-12 09:00:00,78.9,73.3,29.98,ENE,57,5.0,5.0,83,0.00,,,0.08,Wunderground v.1.15,2013-09-12 19:00:00,
2013-09-12 09:05:00,79.1,73.5,29.99,NE,43,5.0,5.0,83,0.00,,,0.08,Wunderground v.1.15,2013-09-12 19:05:00,
2013-09-12 09:15:00,79.2,73.9,29.99,NNE,32,5.0,5.0,84,0.00,,,0.08,Wunderground v.1.15,2013-09-12 19:15:00,
2013-09-12 09:25:00,79.2,73.6,29.99,NE,56,5.0,6.0,83,0.00,,,0.08,Wunderground v.1.15,2013-09-12 19:25:00,
2013-09-12 09:35:00,80.1,73.7,29.99,NE,52,5.0,7.0,81,0.00,,,0.08,Wunderground v.1.15,2013-09-12 19:35:00,
2013-09-12 09:45:00,80.5,74.1,29.99,NE,53,5.0,6.0,81,0.00,,,0.08,Wunderground v.1.15,2013-09-12 19:45:00,
2013-09-12 09:55:00,80.1,74.1,29.98,NE,40,5.0,6.0,82,0.00,,,0.08,Wunderground v.1.15,2013-09-12 19:55:00,
2013-09-12 10:05:00,79.8,73.8,29.98,NE,44,5.0,6.0,82,0.00,,,0.08,Wunderground v.1.15,2013-09-12 20:05:00,
2013-09-12 10:15:00,79.8,73.8,29.98,East,96,4.0,7.0,82,0.00,,,0.08,Wunderground v.1.15,2013-09-12 20:15:00,
2013-09-12 10:25:00,79.2,73.6,29.98,ENE,62,4.0,5.0,83,0.00,,,0.08,Wunderground v.1.15,2013-09-12 20:25:00,
2013-09-12 10:30:00,79.5,73.9,29.98,NE,37,3.0,3.0,83,0.00,,,0.08,Wunderground v.1.15,2013-09-12 20:30:00,
2013-09-12 10:40:00,80.6,73.9,29.97,NE,40,5.0,6.0,80,0.00,,,0.08,Wunderground v.1.15,2013-09-12 20:40:00,
2013-09-12 10:50:00,81.5,74.0,29.97,NE,39,5.0,5.0,78,0.00,,,0.08,Wunderground v.1.15,2013-09-12 20:50:00,
2013-09-12 11:00:00,81.1,73.6,29.97,NE,34,5.0,7.0,78,0.00,,,0.08,Wunderground v.1.15,2013-09-12 21:00:00,
2013-09-12 11:05:00,81.1,73.6,29.97,NE,37,6.0,9.0,78,0.00,,,0.08,Wunderground v.1.15,2013-09-12 21:05:00,
2013-09-12 11:15:00,81.3,74.5,29.97,ENE,75,6.0,7.0,80,0.00,,,0.08,Wunderground v.1.15,2013-09-12 21:15:00,
2013-09-12 11:20:00,80.9,74.1,29.97,NNE,29,6.0,7.0,80,0.00,,,0.08,Wunderground v.1.15,2013-09-12 21:20:00,
2013-09-12 11:30:00,80.2,74.2,29.96,NE,45,7.0,7.0,82,0.00,,,0.08,Wunderground v.1.15,2013-09-12 21:30:00,
2013-09-12 11:40:00,80.2,74.2,29.96,NE,36,6.0,6.0,82,0.00,,,0.08,Wunderground v.1.15,2013-09-12 21:40:00,
2013-09-12 11:50:00,79.5,73.9,29.96,NNE,31,6.0,6.0,83,0.00,,,0.08,Wunderground v.1.15,2013-09-12 21:50:00,
2013-09-12 11:55:00,79.0,74.1,29.95,NE,53,6.0,6.0,85,0.00,,,0.08,Wunderground v.1.15,2013-09-12 21:55:00,
2013-09-12 12:05:00,79.2,74.6,29.95,NE,37,5.0,5.0,86,0.00,,,0.08,Wunderground v.1.15,2013-09-12 22:05:00,
2013-09-12 12:15:00,80.4,73.7,29.95,ENE,59,6.0,10.0,80,0.00,,,0.08,Wunderground v.1.15,2013-09-12 22:15:00,
2013-09-12 12:25:00,80.6,74.2,29.95,East,90,5.0,8.0,81,0.00,,,0.08,Wunderground v.1.15,2013-09-12 22:25:00,
2013-09-12 12:30:00,81.1,74.7,29.95,ENE,59,5.0,6.0,81,0.00,,,0.08,Wunderground v.1.15,2013-09-12 22:30:00,
2013-09-12 12:40:00,81.5,74.4,29.94,NE,50,6.0,6.0,79,0.00,,,0.08,Wunderground v.1.15,2013-09-12 22:40:00,
2013-09-12 12:45:00,81.7,74.9,29.94,NE,36,5.0,6.0,80,0.00,,,0.08,Wunderground v.1.15,2013-09-12 22:45:00,
2013-09-12 12:55:00,81.1,74.3,29.93,NE,35,6.0,6.0,80,0.00,,,0.08,Wunderground v.1.15,2013-09-12 22:55:00,
2013-09-12 13:05:00,81.6,74.8,29.92,NE,55,6.0,6.0,80,0.00,,,0.08,Wunderground v.1.15,2013-09-12 23:05:00,
2013-09-12 13:15:00,82.2,75.0,29.92,NE,44,6.0,13.0,79,0.00,,,0.08,Wunderground v.1.15,2013-09-12 23:15:00,
2013-09-12 13:25:00,82.1,75.3,29.92,NNE,29,7.0,8.0,80,0.00,,,0.08,Wunderground v.1.15,2013-09-12 23:25:00,
2013-09-12 13:30:00,82.1,74.9,29.92,ENE,75,6.0,6.0,79,0.00,,,0.08,Wunderground v.1.15,2013-09-12 23:30:00,
2013-09-12 13:40:00,81.7,74.5,29.91,NE,40,7.0,8.0,79,0.00,,,0.08,Wunderground v.1.15,2013-09-12 23:40:00,
2013-09-12 13:50:00,82.0,74.8,29.91,NE,43,7.0,9.0,79,0.00,,,0.08,Wunderground v.1.15,2013-09-12 23:50:00,
2013-09-12 13:55:00,81.6,74.5,29.91,NNE,28,8.0,9.0,79,0.00,,,0.08,Wunderground v.1.15,2013-09-12 23:55:00,
2013-09-12 14:00:00,81.8,75.0,29.91,NNE,22,8.0,8.0,80,0.00,,,0.08,Wunderground v.1.15,2013-09-13 00:00:00,
2013-09-12 14:05:00,81.6,74.5,29.91,NE,36,7.0,10.0,79,0.00,,,0.08,Wunderground v.1.15,2013-09-13 00:05:00,
2013-09-12 14:15:00,81.9,74.0,29.91,NE,38,6.0,6.0,77,0.00,,,0.08,Wunderground v.1.15,2013-09-13 00:15:00,
2013-09-12 14:20:00,82.1,73.4,29.91,NE,46,7.0,9.0,75,0.00,,,0.08,Wunderground v.1.15,2013-09-13 00:20:00,
2013-09-12 14:30:00,82.2,73.5,29.90,NE,40,7.0,11.0,75,0.00,,,0.08,Wunderground v.1.15,2013-09-13 00:30:00,
2013-09-12 14:40:00,82.4,72.9,29.90,NE,55,6.0,6.0,73,0.00,,,0.08,Wunderground v.1.15,2013-09-13 00:40:00,
2013-09-12 14:50:00,82.3,73.6,29.90,NE,41,7.0,7.0,75,0.00,,,0.08,Wunderground v.1.15,2013-09-13 00:50:00,
2013-09-12 14:55:00,82.6,74.3,29.90,NE,53,6.0,11.0,76,0.00,,,0.08,Wunderground v.1.15,2013-09-13 00:55:00,
2013-09-12 15:00:00,82.3,73.6,29.90,ENE,65,7.0,13.0,75,0.00,,,0.08,Wunderground v.1.15,2013-09-13 01:00:00,
2013-09-12 15:05:00,82.0,74.1,29.90,NNE,28,8.0,13.0,77,0.00,,,0.08,Wunderground v.1.15,2013-09-13 01:05:00,
2013-09-12 15:14:00,82.0,73.7,29.90,NE,53,7.0,10.0,76,0.00,,,0.08,Wunderground v.1.15,2013-09-13 01:14:00,
2013-09-12 15:20:00,82.0,74.1,29.90,NE,34,7.0,7.0,77,0.00,,,0.08,Wunderground v.1.15,2013-09-13 01:20:00,
2013-09-12 15:30:00,82.2,73.9,29.89,ENE,60,7.0,10.0,76,0.00,,,0.08,Wunderground v.1.15,2013-09-13 01:30:00,
2013-09-12 15:40:00,82.0,73.3,29.90,NNE,28,8.0,9.0,75,0.00,,,0.08,Wunderground v.1.15,2013-09-13 01:40:00,
2013-09-12 15:45:00,82.0,73.7,29.90,NNE,26,7.0,9.0,76,0.00,,,0.08,Wunderground v.1.15,2013-09-13 01:45:00,
2013-09-12 15:50:00,82.4,74.5,29.90,NE,40,6.0,6.0,77,0.00,,,0.08,Wunderground v.1.15,2013-09-13 01:50:00,
2013-09-12 16:00:00,82.2,74.7,29.89,NE,43,6.0,8.0,78,0.00,,,0.08,Wunderground v.1.15,2013-09-13 02:00:00,
2013-09-12 16:05:00,82.2,74.3,29.90,NNE,27,6.0,8.0,77,0.00,,,0.08,Wunderground v.1.15,2013-09-13 02:05:00,
2013-09-12 16:15:00,81.9,74.0,29.89,ENE,63,7.0,14.0,77,0.00,,,0.08,Wunderground v.1.15,2013-09-13 02:15:00,
2013-09-12 16:25:00,81.8,73.9,29.89,NE,36,6.0,9.0,77,0.00,,,0.08,Wunderground v.1.15,2013-09-13 02:25:00,
2013-09-12 16:35:00,82.0,74.1,29.90,NE,34,6.0,10.0,77,0.00,,,0.08,Wunderground v.1.15,2013-09-13 02:35:00,
2013-09-12 16:45:00,81.5,74.0,29.90,NE,56,6.0,6.0,78,0.00,,,0.08,Wunderground v.1.15,2013-09-13 02:45:00,
2013-09-12 16:55:00,81.7,74.2,29.89,NE,36,6.0,11.0,78,0.00,,,0.08,Wunderground v.1.15,2013-09-13 02:55:00,
2013-09-12 17:05:00,80.5,73.4,29.89,East,94,5.0,6.0,79,0.00,,,0.08,Wunderground v.1.15,2013-09-13 03:05:00,
2013-09-12 17:15:00,79.9,72.8,29.90,ENE,65,4.0,4.0,79,0.00,,,0.08,Wunderground v.1.15,2013-09-13 03:15:00,
2013-09-12 17:25:00,79.7,72.6,29.90,ENE,61,5.0,6.0,79,0.00,,,0.08,Wunderground v.1.15,2013-09-13 03:25:00,
2013-09-12 17:35:00,80.0,72.9,29.90,ENE,74,5.0,5.0,79,0.00,,,0.08,Wunderground v.1.15,2013-09-13 03:35:00,
2013-09-12 17:40:00,79.8,73.1,29.90,ESE,102,5.0,5.0,80,0.00,,,0.08,Wunderground v.1.15,2013-09-13 03:40:00,
2013-09-12 17:50:00,79.4,72.3,29.90,East,84,4.0,5.0,79,0.00,,,0.08,Wunderground v.1.15,2013-09-13 03:50:00,
2013-09-12 18:00:00,79.1,71.6,29.90,East,86,3.0,5.0,78,0.00,,,0.08,Wunderground v.1.15,2013-09-13 04:00:00,
2013-09-12 18:05:00,78.9,71.5,29.90,East,85,4.0,5.0,78,0.00,,,0.08,Wunderground v.1.15,2013-09-13 04:05:00,
2013-09-12 18:10:00,78.9,71.5,29.90,ENE,61,4.0,4.0,78,0.00,,,0.08,Wunderground v.1.15,2013-09-13 04:10:00,
2013-09-12 18:15:00,78.8,71.7,29.90,ENE,59,3.0,6.0,79,0.00,,,0.08,Wunderground v.1.15,2013-09-13 04:15:00,
2013-09-12 18:20:00,78.7,71.6,29.90,ENE,62,3.0,3.0,79,0.00,,,0.08,Wunderground v.1.15,2013-09-13 04:20:00,
2013-09-12 18:30:00,78.5,71.8,29.91,East,90,3.0,3.0,80,0.00,,,0.08,Wunderground v.1.15,2013-09-13 04:30:00,
2013-09-12 18:40:00,78.2,71.5,29.91,East,87,2.0,2.0,80,0.00,,,0.08,Wunderground v.1.15,2013-09-13 04:40:00,
2013-09-12 18:45:00,78.2,71.9,29.91,ENE,75,3.0,3.0,81,0.00,,,0.08,Wunderground v.1.15,2013-09-13 04:45:00,
2013-09-12 18:55:00,78.1,71.8,29.92,East,94,2.0,2.0,81,0.00,,,0.08,Wunderground v.1.15,2013-09-13 04:55:00,
2013-09-12 19:05:00,78.1,72.2,29.92,East,94,1.0,2.0,82,0.00,,,0.08,Wunderground v.1.15,2013-09-13 05:05:00,
2013-09-12 19:14:00,78.1,72.2,29.92,East,91,1.0,3.0,82,0.00,,,0.08,Wunderground v.1.15,2013-09-13 05:14:00,
2013-09-12 19:20:00,78.2,72.6,29.92,ENE,61,2.0,5.0,83,0.00,,,0.08,Wunderground v.1.15,2013-09-13 05:20:00,
2013-09-12 19:30:00,78.4,72.8,29.92,ENE,75,3.0,3.0,83,0.00,,,0.08,Wunderground v.1.15,2013-09-13 05:30:00,
2013-09-12 19:39:00,78.4,72.8,29.92,ENE,68,4.0,4.0,83,0.00,,,0.08,Wunderground v.1.15,2013-09-13 05:39:00,
2013-09-12 19:45:00,78.3,72.7,29.93,NE,47,4.0,6.0,83,0.00,,,0.08,Wunderground v.1.15,2013-09-13 05:45:00,
2013-09-12 19:55:00,78.4,73.2,29.92,NE,48,3.0,4.0,84,0.00,,,0.08,Wunderground v.1.15,2013-09-13 05:55:00,
2013-09-12 20:00:00,78.4,73.2,29.93,ENE,65,3.0,6.0,84,0.00,,,0.08,Wunderground v.1.15,2013-09-13 06:00:00,
2013-09-12 20:05:00,78.4,73.2,29.93,NE,52,4.0,6.0,84,0.00,,,0.08,Wunderground v.1.15,2013-09-13 06:05:00,
2013-09-12 20:15:00,78.2,72.6,29.93,ENE,67,4.0,4.0,83,0.00,,,0.08,Wunderground v.1.15,2013-09-13 06:15:00,
2013-09-12 20:25:00,78.2,72.6,29.93,ENE,67,3.0,6.0,83,0.00,,,0.08,Wunderground v.1.15,2013-09-13 06:25:00,
2013-09-12 20:34:00,78.1,72.5,29.93,ENE,74,3.0,5.0,83,0.00,,,0.08,Wunderground v.1.15,2013-09-13 06:34:00,
2013-09-12 20:40:00,78.1,72.9,29.94,ENE,66,2.0,4.0,84,0.00,,,0.08,Wunderground v.1.15,2013-09-13 06:40:00,
2013-09-12 20:50:00,78.0,72.8,29.94,ENE,75,2.0,2.0,84,0.00,,,0.08,Wunderground v.1.15,2013-09-13 06:50:00,
2013-09-12 20:59:00,78.1,72.5,29.94,East,80,2.0,2.0,83,0.00,,,0.08,Wunderground v.1.15,2013-09-13 06:59:00,
2013-09-12 21:05:00,78.0,72.4,29.94,East,83,1.0,4.0,83,0.00,,,0.08,Wunderground v.1.15,2013-09-13 07:05:00,
2013-09-12 21:15:00,77.9,72.3,29.94,East,82,1.0,1.0,83,0.00,,,0.08,Wunderground v.1.15,2013-09-13 07:15:00,
2013-09-12 21:25:00,77.9,72.7,29.94,NE,55,2.0,4.0,84,0.00,,,0.08,Wunderground v.1.15,2013-09-13 07:25:00,
2013-09-12 21:35:00,77.9,72.7,29.94,ENE,75,2.0,3.0,84,0.00,,,0.08,Wunderground v.1.15,2013-09-13 07:35:00,
2013-09-12 21:45:00,77.8,72.6,29.94,NE,56,3.0,4.0,84,0.00,,,0.08,Wunderground v.1.15,2013-09-13 07:45:00,
2013-09-12 21:55:00,77.9,73.0,29.94,NE,54,1.0,3.0,85,0.00,,,0.08,Wunderground v.1.15,2013-09-13 07:55:00,
2013-09-12 22:05:00,78.0,73.5,29.94,NE,36,2.0,3.0,86,0.00,,,0.08,Wunderground v.1.15,2013-09-13 08:05:00,
2013-09-12 22:15:00,77.8,72.9,29.93,ENE,75,2.0,2.0,85,0.00,,,0.08,Wunderground v.1.15,2013-09-13 08:15:00,
2013-09-12 22:25:00,77.5,72.3,29.94,East,80,2.0,2.0,84,0.00,,,0.08,Wunderground v.1.15,2013-09-13 08:25:00,
2013-09-12 22:35:00,77.3,72.4,29.93,ESE,103,2.0,2.0,85,0.00,,,0.08,Wunderground v.1.15,2013-09-13 08:35:00,
2013-09-12 22:40:00,77.3,72.4,29.93,East,89,1.0,1.0,85,0.00,,,0.08,Wunderground v.1.15,2013-09-13 08:40:00,
2013-09-12 22:45:00,77.2,72.3,29.93,East,95,2.0,4.0,85,0.00,,,0.08,Wunderground v.1.15,2013-09-13 08:45:00,
2013-09-12 22:55:00,77.2,72.3,29.93,East,96,3.0,3.0,85,0.00,,,0.08,Wunderground v.1.15,2013-09-13 08:55:00,
2013-09-12 23:05:00,77.1,72.2,29.93,East,82,1.0,3.0,85,0.00,,,0.08,Wunderground v.1.15,2013-09-13 09:05:00,
2013-09-12 23:15:00,77.2,72.3,29.92,East,79,1.0,1.0,85,0.00,,,0.08,Wunderground v.1.15,2013-09-13 09:15:00,
2013-09-12 23:25:00,77.1,71.9,29.92,East,88,1.0,2.0,84,0.00,,,0.08,Wunderground v.1.15,2013-09-13 09:25:00,
2013-09-12 23:35:00,77.2,71.6,29.92,East,88,1.0,1.0,83,0.00,,,0.08,Wunderground v.1.15,2013-09-13 09:35:00,
2013-09-12 23:45:00,77.3,71.7,29.92,ENE,76,2.0,3.0,83,0.00,,,0.08,Wunderground v.1.15,2013-09-13 09:45:00,
2013-09-12 23:54:00,77.1,72.2,29.92,East,94,3.0,5.0,85,0.00,,,0.08,Wunderground v.1.15,2013-09-13 09:54:00,